sat.trackr.live / text

‹ back to catalog

COSMOS 2484 (RODNIK-S 6)

NORAD 39059 · 2013-001C

PAYLOAD ACTIVE UNKNOWN

§ Identity

Operator
Country
CIS
Launch date
2013-01-15
Launch site
PLMSC
Launch vehicle
Mass (kg)
RCS (m²)
1.47

External: N2YO · Heavens-Above · Gunter

§ Orbital elements

Epoch: 2026-05-25T04:55:46.072704Z

Period
115.85 min
Inclination
82.5021°
Eccentricity
0.0027504
Mean motion
12.42939013 rev/d
Perigee alt
1,472.5 km
Apogee alt
1,515.8 km
Semi-major
7,872.3 km
B*
1.2339e-3
RAAN
236.1790°
Arg perigee
85.1289°
Mean anomaly
275.2930°
Rev number
60,570

§ Raw data

COSMOS 2484 (RODNIK-S 6)1 39059U 13001C   26145.20539436  .00000181  00000+0  12339-2 0  99902 39059  82.5021 236.1790 0027504  85.1289 275.2930 12.42939013605705

JSON: /api/v1/satellites/39059 · /tle

For live sub-satellite position, see the globe view (requires WebGL).

§ Visibility from observer

Set your observer location to see the next 7 days of passes ≥ 10°. The values pass through the URL so the page stays shareable.

No JS? Fill the form by hand. The geolocation button needs JavaScript.

§ Radio — SatNOGS DB

ModeDescriptionDownlinkUplink
FM UHF Unknown 387.175 MHz
FM UHF Unknown 388.687 MHz

2 transmitters · refreshed weekly from db.satnogs.org